Hourly Data Report for June 03, 2017

BORDEN AWOS
ONTARIO

44°16'20.000" N
79°54'42.000" W
222.50 m
611B002
71534
YBN

Download Data

Hourly Data (June 2017)
Hourly Data Report for June 3, 2017
TIME
LST
Temp Definition
°C
Dew Point Definition
°C
Rel Hum Definition
%
Precip. Amount Definition
mm

Wind Dir Definition
10's deg

Wind Spd Definition
km/h
Visibility Definition
km
Stn Press Definition
kPa
Hmdx Definition


Wind Chill Definition


Weather Definition


00:00 4.8 3.8 93   16 4 14.5 98.98     LegendNANA
01:00 5.9 5.1 95   21 6 14.5 98.98     LegendNANA
02:00 5.6 4.9 95   20 7 14.5 98.93     LegendNANA
03:00 4.0 3.9 99   5 4 14.5 99.00     LegendNANA
04:00 4.9 4.6 98   36 4 14.5 99.11     LegendNANA
05:00 3.7 3.2 96   29 4 14.5 99.16     LegendNANA
06:00 7.5 6.5 93   19 4 14.5 99.20     LegendNANA
07:00 11.7 7.0 73     0 14.5 99.25     LegendNANA
08:00 13.2 6.4 63   35 11 14.5 99.27     LegendNANA
09:00 15.3 6.1 54   34 13 14.5 99.25     LegendNANA
10:00 16.1 5.4 49   2 4 14.5 99.25     LegendNANA
11:00 17.9 3.8 39   30 7 14.5 99.21     LegendNANA
12:00 18.1 1.9 34   34 13 14.5 99.20     LegendNANA
13:00
14:00 19.3 -1.4 25   31 11 14.5 99.12     LegendNANA
15:00 20.1 -1.5 23   30 15 14.5 99.08     LegendNANA
16:00 20.6 -2.4 21   35 11 14.5 99.06     LegendNANA
17:00 19.6 -1.1 25   1 9 14.5 99.02     LegendNANA
18:00 18.8 -0.9 26   34 11 14.5 98.97     LegendNANA
19:00 17.4 0.9 33   33 7 14.5 98.97     LegendNANA
20:00 11.7 3.4 57     0 14.5 98.97     LegendNANA
21:00 8.5 3.0 68   21 6 14.5 98.96     LegendNANA
22:00 7.8 4.2 78   21 4 14.5 98.93     LegendNANA
23:00 7.2 4.1 81     0 14.5 98.91     LegendNANA

Notes on Data Quality.

Legend

  • E = Estimated
  • M = Missing
  • NA = Not Available*
  • [empty] = Indicates an unobserved value
Date modified: